XE2KK-10 Weather Reports


time (UTC)temp
C
wind
direction
speed
KPH
gust
KPH
rain 1hr
cm
rain 24hr
cm
rain mn
cm
humidity
%
barometer
mb
20260506180413 34 24 4.8 8.0 0.00 0.00 0.00 39 1009.8
20260506175913 35 16 4.8 8.0 0.00 0.00 0.00 38 1009.8
20260506175413 33 19 3.2 3.2 0.00 0.00 0.00 41 1009.8
20260506174912 33 348 4.8 6.4 0.00 0.00 0.00 38 1010.0
20260506174412 33 276 1.6 3.2 0.00 0.00 0.00 39 1010.0
20260506173912 33 342 4.8 8.0 0.00 0.00 0.00 44 1010.0
20260506173413 33 311 3.2 4.8 0.00 0.00 0.00 44 1010.3
20260506172913 33 288 3.2 4.8 0.00 0.00 0.00 45 1010.3
20260506172413 33 239 1.6 3.2 0.00 0.00 0.00 43 1010.1
20260506171912 33 256 4.8 6.4 0.00 0.00 0.00 43 1010.3
20260506171412 33 239 4.8 6.4 0.00 0.00 0.00 45 1010.3
20260506170912 32 203 1.6 3.2 0.00 0.00 0.00 47 1010.3
20260506170413 32 230 1.6 3.2 0.00 0.00 0.00 48 1010.3
20260506165913 33 304 1.6 3.2 0.00 0.00 0.00 48 1010.2
20260506165413 32 244 0.0 0.0 0.00 0.00 0.00 49 1010.4
20260506164912 32 344 3.2 4.8 0.00 0.00 0.00 52 1010.5
20260506164412 31 13 3.2 4.8 0.00 0.00 0.00 55 1010.2
20260506163913 31 18 3.2 4.8 0.00 0.00 0.00 54 1010.4
20260506163413 31 40 4.8 6.4 0.00 0.00 0.00 55 1010.6
20260506162913 31 132 4.8 6.4 0.00 0.00 0.00 56 1010.5
20260506162412 31 175 1.6 3.2 0.00 0.00 0.00 57 1010.7
20260506161912 30 123 3.2 4.8 0.00 0.00 0.00 59 1010.6
20260506161412 31 103 1.6 4.8 0.00 0.00 0.00 58 1010.6
20260506160913 30 87 1.6 3.2 0.00 0.00 0.00 59 1010.4
20260506160413 30 346 3.2 3.2 0.00 0.00 0.00 60 1010.7
20260506155913 31 109 3.2 4.8 0.00 0.00 0.00 59 1010.7
20260506155413 30 307 0.0 0.0 0.00 0.00 0.00 61 1010.7
20260506154912 29 65 3.2 4.8 0.00 0.00 0.00 63 1010.6
20260506154412 29 22 3.2 4.8 0.00 0.00 0.00 63 1010.5
20260506153913 28 305 4.8 4.8 0.00 0.00 0.00 65 1010.5
20260506153412 28 286 0.0 0.0 0.00 0.00 0.00 65 1010.4
20260506152912 28 204 0.0 0.0 0.00 0.00 0.00 66 1010.4
20260506152412 28 31 3.2 4.8 0.00 0.00 0.00 68 1010.6
20260506151912 27 103 3.2 4.8 0.00 0.00 0.00 70 1010.4
20260506151412 28 336 3.2 4.8 0.00 0.00 0.00 69 1010.3
20260506150913 27 336 3.2 6.4 0.00 0.00 0.00 71 1010.6
20260506150413 28 289 3.2 3.2 0.00 0.00 0.00 69 1010.6
20260506145912 27 104 3.2 4.8 0.00 0.00 0.00 71 1010.3
20260506145412 28 13 6.4 6.4 0.00 0.00 0.00 71 1010.5
20260506144912 27 51 3.2 4.8 0.00 0.00 0.00 73 1010.5
20260506144412 27 47 1.6 3.2 0.00 0.00 0.00 74 1010.6
20260506143913 27 347 3.2 4.8 0.00 0.00 0.00 75 1010.5
20260506143412 27 323 4.8 6.4 0.00 0.00 0.00 75 1010.5
20260506142912 27 25 3.2 4.8 0.00 0.00 0.00 76 1010.6
20260506142412 27 344 4.8 8.0 0.00 0.00 0.00 75 1010.6
20260506141912 26 283 1.6 3.2 0.00 0.00 0.00 77 1010.6
20260506141413 26 306 3.2 3.2 0.00 0.00 0.00 76 1010.5
20260506140913 26 50 3.2 4.8 0.00 0.00 0.00 77 1010.6
20260506140903 26 9 3.2 6.4 0.00 0.00 0.00 78 1010.5
20260506140412 26 9 3.2 6.4 0.00 0.00 0.00 78 1010.5
20260506135912 26 44 4.8 6.4 0.00 0.00 0.00 79 1010.4
20260506135412 26 15 4.8 6.4 0.00 0.00 0.00 80 1010.3
20260506134913 26 31 6.4 8.0 0.00 0.00 0.00 79 1010.3
20260506134413 26 18 6.4 8.0 0.00 0.00 0.00 79 1010.2
20260506133913 26 24 4.8 6.4 0.00 0.00 0.00 78 1010.2
20260506133412 25 346 4.8 6.4 0.00 0.00 0.00 79 1010.3
20260506132912 25 356 4.8 6.4 0.00 0.00 0.00 79 1010.2
20260506132413 25 39 6.4 11.3 0.00 0.00 0.00 79 1010.0
20260506131913 26 31 4.8 6.4 0.00 0.00 0.00 77 1010.0
20260506131413 26 42 4.8 6.4 0.00 0.00 0.00 69 1010.0
20260506130912 26 25 3.2 3.2 0.00 0.00 0.00 63 1009.9
20260506130412 26 317 1.6 3.2 0.00 0.00 0.00 61 1009.8
20260506125912 26 325 0.0 0.0 0.00 0.00 0.00 63 1009.8
20260506125413 25 95 1.6 3.2 0.00 0.00 0.00 64 1009.7
20260506124912 25 185 0.0 0.0 0.00 0.00 0.00 64 1009.7
20260506124412 25 109 1.6 3.2 0.00 0.00 0.00 64 1009.5
20260506123912 25 162 3.2 4.8 0.00 0.00 0.00 65 1009.4
20260506123413 25 87 1.6 3.2 0.00 0.00 0.00 65 1009.4
20260506122913 25 165 1.6 3.2 0.00 0.00 0.00 65 1009.4
20260506122413 25 184 4.8 4.8 0.00 0.00 0.00 66 1009.6
20260506121912 24 201 1.6 3.2 0.00 0.00 0.00 68 1009.3
20260506121412 24 94 1.6 3.2 0.00 0.00 0.00 69 1009.2
20260506120912 24 94 0.0 0.0 0.00 0.00 0.00 71 1009.2
20260506120413 24 94 0.0 0.0 0.00 0.00 0.00 75 1009.2
20260506115913 24 94 3.2 3.2 0.00 0.00 0.00 74 1009.1
20260506115413 24 94 0.0 0.0 0.00 0.00 0.00 75 1008.8
20260506114912 24 94 0.0 0.0 0.00 0.00 0.00 74 1008.9
20260506114412 24 94 1.6 3.2 0.00 0.00 0.00 75 1009.0
20260506113912 24 94 3.2 3.2 0.00 0.00 0.00 76 1008.8
20260506113413 24 94 1.6 3.2 0.00 0.00 0.00 77 1008.8
20260506112913 25 94 3.2 3.2 0.00 0.00 0.00 78 1008.5
20260506112413 25 94 3.2 3.2 0.00 0.00 0.00 79 1008.6
20260506111912 25 94 1.6 3.2 0.00 0.00 0.00 78 1008.5
20260506111412 25 94 1.6 3.2 0.00 0.00 0.00 78 1008.3
20260506110912 25 94 1.6 3.2 0.00 0.00 0.00 79 1008.4
20260506110413 25 94 1.6 3.2 0.00 0.00 0.00 79 1008.4
20260506105913 25 94 3.2 3.2 0.00 0.00 0.00 79 1008.5
20260506105413 25 139 1.6 3.2 0.00 0.00 0.00 79 1008.5
20260506104912 25 139 1.6 3.2 0.00 0.00 0.00 79 1008.4
20260506104412 25 30 3.2 4.8 0.00 0.00 0.00 79 1008.3
20260506103912 25 93 0.0 0.0 0.00 0.00 0.00 78 1008.5
20260506103413 25 82 3.2 4.8 0.00 0.00 0.00 78 1008.4
20260506102913 25 306 1.6 3.2 0.00 0.00 0.00 78 1008.5
20260506102413 25 39 1.6 3.2 0.00 0.00 0.00 77 1008.4
20260506101912 25 15 3.2 3.2 0.00 0.00 0.00 77 1008.4
20260506101412 25 318 3.2 4.8 0.00 0.00 0.00 76 1008.1
20260506100913 25 15 3.2 4.8 0.00 0.00 0.00 76 1008.3
20260506100413 25 353 1.6 3.2 0.00 0.00 0.00 75 1008.1
20260506095912 25 315 3.2 3.2 0.00 0.00 0.00 75 1008.0
20260506095412 25 16 3.2 4.8 0.00 0.00 0.00 76 1008.0
20260506094912 25 275 1.6 3.2 0.00 0.00 0.00 76 1008.1
20260506094412 25 306 1.6 3.2 0.00 0.00 0.00 76 1008.1
20260506093913 26 37 3.2 3.2 0.00 0.00 0.00 76 1008.1
20260506093412 26 100 4.8 4.8 0.00 0.00 0.00 76 1007.9
20260506092912 26 23 3.2 6.4 0.00 0.00 0.00 75 1007.6
20260506092412 26 61 3.2 4.8 0.00 0.00 0.00 73 1007.8
20260506091912 26 44 3.2 3.2 0.00 0.00 0.00 70 1008.0
20260506091412 26 346 3.2 3.2 0.00 0.00 0.00 67 1007.8
20260506090913 26 91 3.2 4.8 0.00 0.00 0.00 65 1007.9
20260506090412 26 358 4.8 6.4 0.00 0.00 0.00 62 1008.0
20260506085912 26 53 3.2 3.2 0.00 0.00 0.00 62 1008.0
20260506085412 26 32 3.2 4.8 0.00 0.00 0.00 60 1008.2
20260506084912 26 12 1.6 3.2 0.00 0.00 0.00 60 1008.3
20260506084412 26 322 1.6 3.2 0.00 0.00 0.00 60 1008.3
20260506083913 26 351 4.8 4.8 0.00 0.00 0.00 60 1007.6
20260506083412 26 316 1.6 3.2 0.00 0.00 0.00 60 1007.8
20260506082912 26 263 3.2 3.2 0.00 0.00 0.00 59 1007.9
20260506082413 26 281 3.2 4.8 0.00 0.00 0.00 59 1007.8
20260506081912 26 263 1.6 3.2 0.00 0.00 0.00 58 1007.7
20260506081412 27 218 4.8 8.0 0.00 0.00 0.00 58 1007.7
20260506080913 27 205 3.2 4.8 0.00 0.00 0.00 58 1007.7
20260506080412 27 249 3.2 3.2 0.00 0.00 0.00 58 1007.6
20260506073412 27 217 1.6 3.2 0.00 0.00 0.00 57 1007.6
20260506072912 27 229 1.6 3.2 0.00 0.00 0.00 56 1007.4
20260506072412 27 225 3.2 3.2 0.00 0.00 0.00 56 1007.6
20260506071912 27 220 1.6 3.2 0.00 0.00 0.00 55 1007.7
20260506071412 28 205 1.6 3.2 0.00 0.00 0.00 55 1007.3
20260506070913 28 207 3.2 3.2 0.00 0.00 0.00 54 1007.6
20260506070412 28 230 3.2 4.8 0.00 0.00 0.00 54 1007.3
20260506062412 28 201 4.8 4.8 0.00 0.00 0.00 52 1007.7
20260506061912 28 200 6.4 6.4 0.00 0.00 0.00 52 1007.2
20260506061412 28 189 4.8 6.4 0.00 0.00 0.00 52 1007.3
20260506060913 28 196 3.2 3.2 0.00 0.00 0.00 52 1007.1
20260506060412 28 225 1.6 3.2 0.00 0.00 0.00 52 1007.2
20260506051412 29 193 4.8 6.4 0.00 0.00 0.00 49 1007.1
20260506050913 29 207 4.8 4.8 0.00 0.00 0.00 49 1006.9
20260506050413 29 193 4.8 6.4 0.00 0.00 0.00 48 1006.9
20260506044912 29 242 1.6 3.2 0.00 0.00 0.00 48 1006.9
20260506044412 30 198 3.2 4.8 0.00 0.00 0.00 47 1006.7
20260506043913 30 220 4.8 6.4 0.00 0.00 0.00 47 1006.9
20260506043412 30 220 6.4 8.0 0.00 0.00 0.00 46 1006.8
20260506042912 30 212 6.4 9.7 0.00 0.00 0.00 45 1006.5
20260506042412 30 205 4.8 6.4 0.00 0.00 0.00 44 1006.4
20260506041912 30 234 3.2 6.4 0.00 0.00 0.00 44 1006.3
20260506041412 30 192 4.8 6.4 0.00 0.00 0.00 44 1006.3
20260506040913 30 235 4.8 6.4 0.00 0.00 0.00 44 1006.4
20260506040412 31 240 3.2 4.8 0.00 0.00 0.00 44 1006.2
20260506035912 31 246 3.2 4.8 0.00 0.00 0.00 43 1006.3
20260506035412 31 244 4.8 6.4 0.00 0.00 0.00 43 1005.9
20260506034912 31 282 6.4 8.0 0.00 0.00 0.00 42 1006.0
20260506034412 31 253 3.2 6.4 0.00 0.00 0.00 42 1006.1
20260506033913 31 277 4.8 6.4 0.00 0.00 0.00 41 1006.0
20260506033412 31 301 3.2 4.8 0.00 0.00 0.00 41 1005.7
20260506032912 31 249 3.2 4.8 0.00 0.00 0.00 40 1005.7
20260506032412 31 271 4.8 6.4 0.00 0.00 0.00 40 1005.5
20260506031912 31 290 3.2 3.2 0.00 0.00 0.00 40 1005.6
20260506031412 31 265 4.8 6.4 0.00 0.00 0.00 39 1005.5
20260506030913 32 278 6.4 8.0 0.00 0.00 0.00 38 1005.5
20260506030412 32 328 4.8 8.0 0.00 0.00 0.00 37 1005.3
20260506025912 32 323 9.7 14.5 0.00 0.00 0.00 36 1005.4
20260506025412 32 227 9.7 14.5 0.00 0.00 0.00 35 1005.4
20260506024912 32 277 4.8 6.4 0.00 0.00 0.00 35 1005.3
20260506024412 32 259 6.4 8.0 0.00 0.00 0.00 35 1005.0
20260506023913 32 219 3.2 3.2 0.00 0.00 0.00 35 1005.2
20260506023412 32 324 4.8 6.4 0.00 0.00 0.00 34 1005.2
20260506022912 33 254 3.2 4.8 0.00 0.00 0.00 33 1005.0
20260506022412 33 300 6.4 9.7 0.00 0.00 0.00 32 1004.8
20260506021912 33 314 6.4 6.4 0.00 0.00 0.00 32 1004.9
20260506021412 33 7 11.3 16.1 0.00 0.00 0.00 32 1004.8
20260506020913 33 327 4.8 8.0 0.00 0.00 0.00 32 1004.6
20260506020412 33 274 6.4 8.0 0.00 0.00 0.00 32 1004.6
20260506015912 33 291 9.7 9.7 0.00 0.00 0.00 31 1004.6
20260506015412 34 292 6.4 8.0 0.00 0.00 0.00 31 1004.8
20260506014912 34 326 6.4 6.4 0.00 0.00 0.00 30 1004.4
20260506014412 34 308 8.0 11.3 0.00 0.00 0.00 30 1004.6
20260506013913 35 13 6.4 8.0 0.00 0.00 0.00 30 1004.5
20260506013412 35 323 9.7 14.5 0.00 0.00 0.00 29 1004.6
20260506012912 35 280 6.4 8.0 0.00 0.00 0.00 30 1004.4
20260506012412 35 354 9.7 11.3 0.00 0.00 0.00 30 1004.4
20260506011912 35 323 6.4 8.0 0.00 0.00 0.00 30 1004.0
20260506011412 35 333 8.0 14.5 0.00 0.00 0.00 30 1004.1
20260506010913 35 321 3.2 6.4 0.00 0.00 0.00 29 1004.0
20260506010412 35 261 6.4 8.0 0.00 0.00 0.00 28 1003.8
20260506005912 36 252 1.6 3.2 0.00 0.00 0.00 29 1003.9
20260506005412 36 262 3.2 4.8 0.00 0.00 0.00 28 1003.7
20260506004912 36 334 6.4 8.0 0.00 0.00 0.00 28 1003.7
20260506004412 36 358 4.8 6.4 0.00 0.00 0.00 28 1003.6
20260506003913 36 266 4.8 6.4 0.00 0.00 0.00 28 1003.5
20260506003413 37 263 8.0 9.7 0.00 0.00 0.00 26 1003.5
20260506002912 37 62 1.6 3.2 0.00 0.00 0.00 26 1003.3
20260506002412 37 330 12.9 17.7 0.00 0.00 0.00 26 1003.2
20260506001912 37 301 9.7 11.3 0.00 0.00 0.00 25 1003.4
20260506001412 38 10 4.8 6.4 0.00 0.00 0.00 23 1003.2
20260506000913 38 19 3.2 4.8 0.00 0.00 0.00 23 1003.3
20260506000413 38 246 3.2 6.4 0.00 0.00 0.00 23 1003.2
20260505235913 38 320 1.6 3.2 0.00 0.00 0.00 23 1003.1
20260505235412 38 260 4.8 6.4 0.00 0.00 0.00 22 1003.2
20260505234912 40 355 4.8 6.4 0.00 0.00 0.00 18 1003.2
20260505234412 40 229 0.0 0.0 0.00 0.00 0.00 15 1003.1
20260505233913 40 121 1.6 4.8 0.00 0.00 0.00 15 1003.1
20260505233412 39 121 3.2 4.8 0.00 0.00 0.00 15 1003.2
20260505232912 40 60 1.6 3.2 0.00 0.00 0.00 16 1003.0
20260505232412 40 71 8.0 8.0 0.00 0.00 0.00 15 1003.1
20260505231912 40 107 3.2 4.8 0.00 0.00 0.00 15 1003.2
20260505231412 40 90 3.2 4.8 0.00 0.00 0.00 15 1003.0
20260505230913 40 16 4.8 4.8 0.00 0.00 0.00 16 1003.2
20260505230412 40 237 3.2 3.2 0.00 0.00 0.00 15 1003.3
20260505225912 40 227 0.0 0.0 0.00 0.00 0.00 15 1003.2
20260505225412 40 320 1.6 3.2 0.00 0.00 0.00 16 1003.1
20260505224912 40 15 1.6 3.2 0.00 0.00 0.00 16 1003.4
20260505224412 40 2 3.2 3.2 0.00 0.00 0.00 16 1003.3
20260505223913 40 312 3.2 3.2 0.00 0.00 0.00 16 1003.4
20260505223412 40 49 4.8 6.4 0.00 0.00 0.00 17 1003.5
20260505222912 40 18 3.2 6.4 0.00 0.00 0.00 17 1003.5
20260505222412 40 76 4.8 6.4 0.00 0.00 0.00 17 1003.4
20260505221912 41 259 3.2 4.8 0.00 0.00 0.00 16 1003.7
20260505221412 40 251 3.2 3.2 0.00 0.00 0.00 16 1003.7
20260505220913 40 333 4.8 6.4 0.00 0.00 0.00 16 1003.7
20260505220412 40 100 3.2 4.8 0.00 0.00 0.00 17 1003.8
20260505215912 40 66 6.4 8.0 0.00 0.00 0.00 17 1003.8
20260505215412 41 271 3.2 6.4 0.00 0.00 0.00 16 1003.7
20260505214912 40 172 3.2 4.8 0.00 0.00 0.00 16 1004.0
20260505214412 40 156 1.6 3.2 0.00 0.00 0.00 17 1004.3
20260505213913 40 122 3.2 4.8 0.00 0.00 0.00 18 1004.2
20260505213412 40 193 3.2 3.2 0.00 0.00 0.00 18 1004.4
20260505212912 39 193 4.8 6.4 0.00 0.00 0.00 18 1004.5
20260505212412 39 20 11.3 11.3 0.00 0.00 0.00 19 1004.4
20260505211912 40 70 4.8 6.4 0.00 0.00 0.00 20 1004.4
20260505211412 40 263 4.8 6.4 0.00 0.00 0.00 19 1004.6
20260505210913 40 43 3.2 4.8 0.00 0.00 0.00 19 1005.0
20260505210412 39 290 3.2 3.2 0.00 0.00 0.00 21 1004.7
20260505205912 39 37 6.4 8.0 0.00 0.00 0.00 21 1004.9
20260505205412 38 333 4.8 6.4 0.00 0.00 0.00 21 1005.1
20260505204912 38 138 6.4 8.0 0.00 0.00 0.00 21 1005.3
20260505204412 38 260 1.6 3.2 0.00 0.00 0.00 21 1005.7
20260505203913 38 26 11.3 17.7 0.00 0.00 0.00 23 1005.5
20260505203412 38 127 6.4 8.0 0.00 0.00 0.00 23 1005.7
20260505202912 38 93 1.6 3.2 0.00 0.00 0.00 23 1005.6
20260505202412 38 357 9.7 11.3 0.00 0.00 0.00 24 1005.7
20260505201912 38 262 1.6 4.8 0.00 0.00 0.00 24 1005.9
20260505201412 38 74 4.8 4.8 0.00 0.00 0.00 24 1005.9
20260505200913 37 102 6.4 6.4 0.00 0.00 0.00 25 1006.0
20260505200412 38 265 6.4 8.0 0.00 0.00 0.00 25 1006.3
20260505195912 37 312 3.2 3.2 0.00 0.00 0.00 26 1006.3
20260505195412 37 250 3.2 3.2 0.00 0.00 0.00 27 1006.5
20260505194912 37 24 6.4 8.0 0.00 0.00 0.00 27 1006.6
20260505194412 37 99 4.8 4.8 0.00 0.00 0.00 27 1006.3
20260505193913 36 97 1.6 3.2 0.00 0.00 0.00 28 1006.6
20260505193412 36 31 3.2 4.8 0.00 0.00 0.00 29 1006.6
20260505192912 36 106 4.8 6.4 0.00 0.00 0.00 29 1006.8
20260505192412 36 226 3.2 3.2 0.00 0.00 0.00 28 1006.7
20260505191913 36 359 9.7 11.3 0.00 0.00 0.00 30 1006.9
20260505191413 36 98 3.2 3.2 0.00 0.00 0.00 30 1007.1
20260505190913 35 257 1.6 3.2 0.00 0.00 0.00 30 1007.2
20260505190412 35 229 3.2 3.2 0.00 0.00 0.00 31 1007.3
20260505185912 35 101 1.6 3.2 0.00 0.00 0.00 31 1007.3
20260505185412 35 275 3.2 4.8 0.00 0.00 0.00 31 1007.5
20260505184913 34 66 6.4 8.0 0.00 0.00 0.00 33 1007.6
20260505184413 35 108 3.2 4.8 0.00 0.00 0.00 33 1007.6
20260505183913 35 261 1.6 3.2 0.00 0.00 0.00 32 1007.8
20260505183412 34 314 3.2 3.2 0.00 0.00 0.00 34 1007.8
20260505182912 34 277 4.8 6.4 0.00 0.00 0.00 35 1007.9
20260505182412 34 327 9.7 11.3 0.00 0.00 0.00 35 1008.1
20260505181913 33 17 3.2 4.8 0.00 0.00 0.00 36 1008.0
20260505181413 32 44 4.8 6.4 0.00 0.00 0.00 37 1008.1
20260505180913 33 352 4.8 6.4 0.00 0.00 0.00 37 1008.2